Погода Тегюльтя-Терде

Погода Тегюльтя-Терде : погода сейчас, прогноз погоды и архив. Всё, что Вы хотите узнать о погоде Тегюльтя-Терде!

Поиск расширенной информации на нашем сайте:

Другие новости

Новости СМИ2

Главная страница сайта

Новости сайта

03.07.2017

Напоминаем, что на нашем специализированном сайте Метеоцентр.Азия вы можете получить высокодетализированные автоматические прогнозы погоды по пунктам России, СНГ и мира в авиационном формате (включающие направление и скорость ветра, видимость, явления погоды, количество и форму облачности, нижнюю и верхнюю границу облачности).

Рекомендуем: предлагаются помещения сдам офис Бизнес центр Варшавка Sky у метро Чертановская

Погода Тегюльтя-Терде - сегодня

Время (UTC), дата Ветер
(°,м/с) 
Видим.   Явления Облачность Т
(°С)
Тd
(°С)
f(%) Тe
(°С)
Pmin
(гПа)
dP
(гПа)
Po
(мм)
O2
(г/м3)
Тmin Tmax R s Состояние
почвы
18 19.11.17 тихо ()   10 км  слаб. снег  10/0 верхняя 
[Cs]
-41.3 -43.2 82 -41  1024.1  -0.7  749  358           
21 19.11.17 тихо ()   20000 м  {снег}  10/0 верхняя 
[Ci fib]
-41.5 -44.4 73 -42  1020.8  -3.2  747  357           
00 20.11.17 тихо ()   20000 м  {снег}  10/0 верхняя 
[Ci fib]
-41.5 -44.4 73 -42  1018.3  -2.5  745  356  -41.6    0.3  23  равномерный
сухой снег
100% 
03 20.11.17 тихо ()   20000 м    10/0 верхняя 
[Ci fib]
-36.8 -39.1 79 -37  1015  -2.7  743  348           
06 20.11.17 230 (ЮЗ) 20000 м    10/0 средняя 
[As trans]
-30.3 -32.8 79 -34  1012.4  -2  741  338           
09 20.11.17 тихо ()   20000 м    10/0 средняя 
[As trans]
-31.8 -34.1 80 -32  1010.6  -1.7  740  339           
12 20.11.17 тихо ()   20000 м    6/0 верхняя 
[Ci fib]
-34.6 -36.8 80 -35  1010.1  -0.9  739  343    -30.3       
15 20.11.17 тихо ()   20000 м    3/0 верхняя 
[Ci fib]
-35.4 -37.7 79 -35  1009.2  -0.9  739  344           
18 20.11.17 тихо ()   20000 м    3/0 верхняя 
[Ci fib]
-36.3 -38.4 81 -36  1008.9  -0.5  738  345           
21 20.11.17 тихо ()   20000 м    10/0 средняя 
[As op]
-32.8 -35.1 80 -33  1008.8  0.3  738  340           
00 21.11.17 210 (ЮЗ) 20000 м  слаб. снег  10/0 средняя 
[As op]
-25.6 -28.1 80 -31  1007.7  -0.3  738  330  -36.3    0.2  23  равномерный
сухой снег
100% 
03 21.11.17 240 (ЮЗ) 20000 м  слаб. снег  10/0 средняя 
[As op]
-24 -26.5 80 -29  1007.5  738  328           
06 21.11.17 240 (ЮЗ) 20000 м  слаб. снег  10/0 средняя 
[As op]
-21.7 -24.9 75 -26  1007.4  0.1  738  325           
09 21.11.17 240 (ЮЗ) 10 км  слаб. снег  10/0 средняя 
[As op]
-22.9 -25.5 79 -23  1008.9  1.3  739  327           
12 21.11.17 220 (ЮЗ) 10 км  слаб. снег  10/0 средняя 
[As trans]
-24 -26.5 80 -27  1009.7  0.8  740  329    -21.7  0.5     
15 21.11.17 200 (Ю) 10 км  слаб. снег  10/0 средняя 
[As op]
-24.5 -26 87 -25  1010.2  0.5  740  329           
18 21.11.17 200 (Ю) 10 км  слаб. снег  10/0 средняя 
[As op]
-23 -25.6 79 -23  1011  0.7  741  328           
21 21.11.17 тихо ()   10 км  слаб. снег  10/0 средняя 
[As trans]
-29 -31.4 80 -29  1010.7  -0.8  740  336           
00 22.11.17 тихо ()   20000 м  слаб. снег  10/0 средняя 
[As op]
-27.3 -29.8 79 -27  1010.9  0.4  740  333  -29.1    0.6  24  равномерный
сухой снег
100% 
03 22.11.17 тихо ()   20000 м  слаб. снег  10/0 средняя, верхняя 
[As trans|Cs]
-23.7 -26.3 79 -24  1011.2  0.6  741  329           
06 22.11.17 230 (ЮЗ) 20000 м  слаб. снег  10/0 верхняя 
[Cs]
-21.8 -24.3 80 -22  1010.9  -0.1  741  326           
09 22.11.17 тихо ()   10 км  слаб. снег  10/0 верхняя 
[Cs]
-27.5 -29.3 85 -28  1012.2  0.7  741  334           
12 22.11.17 тихо ()   10 км  слаб. снег  10/0 верхняя 
[Cs]
-27.4 -29.2 85 -27  1013.5  1.3  742  334    -21.6  0.6     
15 22.11.17 040 (СВ) 10 км  слаб. снег  10/0 верхняя 
[Cs]
-30.4 -32.8 79 -34  1016.4  2.5  744  339           
18 22.11.17 050 (СВ) 10 км  слаб. снег  10/0 верхняя 
[Cs]
-31.9 -34.4 79 -36  1018  1.5  745  342           
Время (UTC), дата Ветер
(°,м/с) 
Видим.   Явления Облачность Т
(°С)
Тd
(°С)
f(%) Тe
(°С)
Pmin
(гПа)
dP
(гПа)
Po
(мм)
O2
(г/м3)
Тmin Tmax R s Состояние
почвы

Для получения пояснительной информации подведите курсор к названию столбца.

ПОГОДА Тегюльтя-Терде - архив

Всё, что Вы хотите узнать о погоде Тегюльтя-Терде - удобно и подробно!

Выберите нужную дату (начиная с 1 января 2015* года) и нажмите кнопку "Найти".
Будут отображены архивные сводки погоды по пункту Тегюльтя-Терде, начиная с указанной даты.


Отображать данные в формате CSV (для использования в таблицах Excel)


Внимание! Наш архив погоды предназначен исключительно для личного некоммерческого использования в познавательных целях. Если Вам необходимы официальные справки о состоянии погоды (для производственных, юридических, коммерческих и т.п. целей), обращайтесь в органы Росгидромета.

*Примечание: данная дата относится к архиву по метеостанциям СССР (Россия, СНГ, Балтия).
Архив по метеостанциям Зарубежной Европы и Азии (кроме Китая) хранится 10 дней, по другим регионам земного шара (Китай, Африка, Америка, Австралия, Океания) - 1 день.

Тегюльтя-Терде - район местоположения метеостанции


Название, широта, долгота, высота метеостанции:
Тегюльтя-Терде 60.2°ш. 130.2°д. 171 м над ур. моря [Российская Федерация]

Дополнительная информация

В oтличие oт бoльшинства пoгoдных сайтoв мы публикуем пoдрoбную метеoинфoрмацию в детальнoм прoфессиoнальнoм фoрмате.

Характеристики температуры и влажнoсти вoздуха измеряются на высoте 2 м в тени вдали oт зданий и деревьев.
Скoрoсть ветра измеряется на высoте 10 м (на урoвне рoста челoвека скoрoсть ветра ниже в 1.5-2 раза). Если метеoстанция нахoдится в гoрoде или в лесу, тo скoрoсть ветра занижена на 2-4 м/с пo сравнению с oткрытым местoм. Скoрoсть ветра над акватoриями крупных рек и oзёр, а также на вершинах хoлмoв на 2-5 м/с выше, чем в oбычных услoвиях.
Атмoсфернoе давление в разных тoчках местнoсти мoжет значительнo oтличаться oт давления на метеoстанции, в зависимoсти oт услoвий рельефа (при пoдъёме на 10 м давление пoнижается примернo на 1 мм рт.ст.).